| time (UTC) | temp F | wind direction | speed MPH | gust MPH | rain 1hr in | rain 24hr in | rain mn in | humidity % | barometer mb |
| 20260503060234 | 69 | 349 | 3.0 | 7.0 | 0.07 | 0.12 | 0.07 | 94 | 1013.6 |
| 20260503054734 | 70 | 302 | 5.0 | 8.0 | 0.00 | 0.05 | 0.00 | 94 | 1014.5 |
| 20260503054234 | 70 | 294 | 4.0 | 8.0 | 0.00 | 0.05 | 0.00 | 94 | 1014.4 |
| 20260503053734 | 70 | 317 | 3.0 | 5.0 | 0.00 | 0.05 | 0.00 | 94 | 1014.4 |
| 20260503053609 | 70 | 291 | 2.0 | 4.0 | 0.00 | 0.05 | 0.00 | 94 | 1014.4 |
| 20260503053234 | 70 | 291 | 2.0 | 4.0 | 0.00 | 0.05 | 0.00 | 94 | 1014.4 |
| 20260503052734 | 70 | 265 | 1.0 | 3.0 | 0.00 | 0.05 | 0.00 | 94 | 1014.5 |
| 20260503052235 | 70 | 254 | 1.0 | 2.0 | 0.00 | 0.05 | 0.00 | 94 | 1014.4 |
| 20260503051735 | 70 | 221 | 2.0 | 2.0 | 0.00 | 0.05 | 0.00 | 94 | 1014.5 |
| 20260503051235 | 70 | 190 | 2.0 | 4.0 | 0.00 | 0.05 | 0.00 | 94 | 1014.5 |
| 20260503050734 | 70 | 178 | 2.0 | 3.0 | 0.00 | 0.05 | 0.00 | 94 | 1014.6 |
| 20260503050235 | 70 | 196 | 1.0 | 3.0 | 0.00 | 0.05 | 0.00 | 94 | 1014.6 |
| 20260503050210 | 70 | 190 | 2.0 | 3.0 | 0.00 | 0.05 | 0.00 | 94 | 1014.4 |
| 20260503045735 | 70 | 190 | 2.0 | 3.0 | 0.00 | 0.05 | 0.00 | 94 | 1014.4 |
| 20260503045235 | 70 | 291 | 2.0 | 4.0 | 0.00 | 0.05 | 0.00 | 94 | 1014.5 |
| 20260503044735 | 70 | 257 | 2.0 | 4.0 | 0.00 | 0.05 | 0.00 | 94 | 1014.5 |
| 20260503044541 | 70 | 254 | 2.0 | 6.0 | 0.00 | 0.05 | 0.00 | 94 | 1014.5 |
| 20260503044235 | 70 | 254 | 2.0 | 6.0 | 0.00 | 0.05 | 0.00 | 94 | 1014.5 |
| 20260503044102 | 70 | 282 | 3.0 | 4.0 | 0.00 | 0.05 | 0.00 | 94 | 1014.4 |
| 20260503044016 | 70 | 282 | 3.0 | 4.0 | 0.00 | 0.05 | 0.00 | 94 | 1014.4 |
| 20260503043735 | 70 | 282 | 3.0 | 4.0 | 0.00 | 0.05 | 0.00 | 94 | 1014.4 |
| 20260503043235 | 69 | 265 | 3.0 | 7.0 | 0.00 | 0.05 | 0.00 | 94 | 1014.3 |
| 20260503043143 | 69 | 286 | 3.0 | 7.0 | 0.00 | 0.05 | 0.00 | 94 | 1014.3 |
| 20260503042735 | 69 | 286 | 3.0 | 7.0 | 0.00 | 0.05 | 0.00 | 94 | 1014.3 |
| 20260503042235 | 69 | 245 | 2.0 | 4.0 | 0.00 | 0.05 | 0.00 | 94 | 1014.2 |
| 20260503041735 | 69 | 198 | 2.0 | 4.0 | 0.00 | 0.05 | 0.00 | 94 | 1014.2 |
| 20260503041559 | 69 | 178 | 2.0 | 3.0 | 0.00 | 0.05 | 0.00 | 94 | 1014.0 |
| 20260503041416 | 69 | 178 | 2.0 | 3.0 | 0.00 | 0.05 | 0.00 | 94 | 1014.0 |
| 20260503041235 | 69 | 178 | 2.0 | 3.0 | 0.00 | 0.05 | 0.00 | 94 | 1014.0 |
| 20260503040735 | 69 | 221 | 3.0 | 4.0 | 0.00 | 0.05 | 0.00 | 94 | 1013.8 |
| 20260503040641 | 69 | 295 | 3.0 | 4.0 | 0.00 | 0.05 | 0.00 | 94 | 1013.7 |
| 20260503040235 | 69 | 295 | 3.0 | 4.0 | 0.00 | 0.05 | 0.00 | 94 | 1013.7 |
| 20260503040150 | 69 | 298 | 4.0 | 5.0 | 0.00 | 0.05 | 0.00 | 94 | 1013.6 |
| 20260503035913 | 69 | 295 | 3.0 | 5.0 | 0.00 | 0.05 | 0.00 | 94 | 1013.6 |
| 20260503035735 | 69 | 298 | 4.0 | 5.0 | 0.00 | 0.05 | 0.00 | 94 | 1013.6 |
| 20260503035235 | 69 | 295 | 3.0 | 5.0 | 0.00 | 0.05 | 0.00 | 94 | 1013.6 |
| 20260503035139 | 70 | 295 | 2.0 | 4.0 | 0.00 | 0.05 | 0.00 | 94 | 1013.6 |
| 20260503034735 | 70 | 295 | 2.0 | 4.0 | 0.00 | 0.05 | 0.00 | 94 | 1013.6 |
| 20260503034641 | 70 | 0 | 2.0 | 3.0 | 0.00 | 0.05 | 0.00 | 94 | 1013.5 |
| 20260503034235 | 70 | 0 | 2.0 | 3.0 | 0.00 | 0.05 | 0.00 | 94 | 1013.5 |
| 20260503034139 | 70 | 205 | 2.0 | 3.0 | 0.00 | 0.05 | 0.00 | 94 | 1013.5 |
| 20260503033735 | 70 | 205 | 2.0 | 3.0 | 0.00 | 0.05 | 0.00 | 94 | 1013.5 |
| 20260503033541 | 70 | 236 | 2.0 | 5.0 | 0.00 | 0.05 | 0.00 | 94 | 1013.2 |
| 20260503033235 | 70 | 236 | 2.0 | 5.0 | 0.00 | 0.05 | 0.00 | 94 | 1013.2 |
| 20260503032735 | 69 | 265 | 2.0 | 6.0 | 0.00 | 0.05 | 0.00 | 94 | 1013.3 |
| 20260503032235 | 70 | 209 | 3.0 | 5.0 | 0.00 | 0.05 | 0.00 | 94 | 1013.4 |
| 20260503031735 | 70 | 185 | 3.0 | 4.0 | 0.00 | 0.05 | 0.00 | 94 | 1013.4 |
| 20260503031235 | 70 | 198 | 3.0 | 4.0 | 0.00 | 0.05 | 0.00 | 94 | 1013.4 |
| 20260503030735 | 69 | 215 | 3.0 | 4.0 | 0.00 | 0.05 | 0.00 | 94 | 1013.5 |
| 20260503030235 | 69 | 198 | 3.0 | 5.0 | 0.00 | 0.05 | 0.00 | 95 | 1013.5 |
| 20260503025735 | 69 | 212 | 3.0 | 5.0 | 0.00 | 0.05 | 0.00 | 95 | 1013.4 |
| 20260503025235 | 70 | 225 | 3.0 | 6.0 | 0.00 | 0.05 | 0.00 | 95 | 1013.3 |
| 20260503024735 | 70 | 189 | 3.0 | 6.0 | 0.00 | 0.05 | 0.00 | 95 | 1013.2 |
| 20260503024235 | 70 | 236 | 3.0 | 6.0 | 0.00 | 0.05 | 0.00 | 95 | 1013.1 |
| 20260503023735 | 70 | 209 | 4.0 | 7.0 | 0.00 | 0.05 | 0.00 | 95 | 1013.1 |
| 20260503023235 | 70 | 250 | 4.0 | 7.0 | 0.00 | 0.05 | 0.00 | 95 | 1013.0 |
| 20260503022735 | 70 | 265 | 4.0 | 8.0 | 0.00 | 0.05 | 0.00 | 95 | 1012.8 |
| 20260503022235 | 70 | 209 | 3.0 | 7.0 | 0.00 | 0.05 | 0.00 | 95 | 1012.6 |
| 20260503021735 | 70 | 279 | 4.0 | 7.0 | 0.00 | 0.05 | 0.00 | 95 | 1012.5 |
| 20260503021235 | 70 | 246 | 4.0 | 8.0 | 0.00 | 0.05 | 0.00 | 95 | 1012.6 |
| 20260503020735 | 70 | 268 | 4.0 | 9.0 | 0.00 | 0.05 | 0.00 | 95 | 1012.4 |
| 20260503020235 | 70 | 287 | 4.0 | 8.0 | 0.00 | 0.05 | 0.00 | 95 | 1012.1 |
| 20260503015735 | 71 | 272 | 4.0 | 8.0 | 0.00 | 0.05 | 0.00 | 95 | 1012.2 |
| 20260503015235 | 71 | 255 | 4.0 | 8.0 | 0.00 | 0.05 | 0.00 | 95 | 1012.2 |
| 20260503015058 | 71 | 254 | 5.0 | 9.0 | 0.00 | 0.05 | 0.00 | 95 | 1012.2 |
| 20260503014735 | 71 | 254 | 5.0 | 9.0 | 0.00 | 0.05 | 0.00 | 95 | 1012.2 |
| 20260503014235 | 71 | 272 | 5.0 | 8.0 | 0.00 | 0.05 | 0.00 | 95 | 1012.0 |
| 20260503014150 | 71 | 254 | 5.0 | 9.0 | 0.00 | 0.05 | 0.00 | 95 | 1012.1 |
| 20260503014020 | 70 | 261 | 6.0 | 9.0 | 0.00 | 0.05 | 0.00 | 95 | 1011.5 |
| 20260503013735 | 71 | 254 | 5.0 | 9.0 | 0.00 | 0.05 | 0.00 | 95 | 1012.1 |
| 20260503013235 | 70 | 261 | 6.0 | 9.0 | 0.00 | 0.05 | 0.00 | 95 | 1011.5 |
| 20260503012735 | 70 | 306 | 6.0 | 10.0 | 0.00 | 0.05 | 0.00 | 95 | 1011.4 |
| 20260503012235 | 70 | 275 | 6.0 | 10.0 | 0.00 | 0.05 | 0.00 | 95 | 1011.5 |
| 20260503012226 | 70 | 262 | 6.0 | 9.0 | 0.00 | 0.05 | 0.00 | 95 | 1011.3 |
| 20260503011735 | 70 | 262 | 6.0 | 9.0 | 0.00 | 0.05 | 0.00 | 95 | 1011.3 |
| 20260503011235 | 70 | 261 | 6.0 | 12.0 | 0.00 | 0.05 | 0.00 | 94 | 1011.7 |
| 20260503010735 | 70 | 294 | 4.0 | 9.0 | 0.00 | 0.05 | 0.00 | 94 | 1011.4 |
| 20260503010235 | 70 | 219 | 4.0 | 5.0 | 0.00 | 0.05 | 0.00 | 95 | 1011.2 |
| 20260503010019 | 70 | 183 | 3.0 | 7.0 | 0.00 | 0.05 | 0.00 | 95 | 1010.3 |
| 20260503005735 | 70 | 219 | 4.0 | 7.0 | 0.00 | 0.05 | 0.00 | 95 | 1010.6 |
| 20260503005235 | 70 | 183 | 3.0 | 7.0 | 0.00 | 0.05 | 0.00 | 95 | 1010.3 |
| 20260503004735 | 70 | 178 | 3.0 | 6.0 | 0.00 | 0.05 | 0.00 | 95 | 1010.0 |
| 20260503004235 | 70 | 182 | 3.0 | 7.0 | 0.00 | 0.05 | 0.00 | 95 | 1009.6 |
| 20260503003735 | 70 | 146 | 3.0 | 7.0 | 0.00 | 0.05 | 0.00 | 95 | 1009.5 |
| 20260503003235 | 70 | 193 | 3.0 | 6.0 | 0.00 | 0.05 | 0.00 | 95 | 1010.5 |
| 20260503002735 | 70 | 80 | 5.0 | 7.0 | 0.01 | 0.05 | 0.00 | 95 | 1010.4 |
| 20260503002235 | 70 | 191 | 4.0 | 9.0 | 0.01 | 0.05 | 0.00 | 95 | 1010.9 |
| 20260503001735 | 70 | 178 | 4.0 | 8.0 | 0.01 | 0.05 | 0.00 | 95 | 1011.0 |
| 20260503001235 | 70 | 178 | 255.0 | 6.0 | 0.01 | 0.05 | 0.00 | 95 | 1011.2 |
| 20260503000735 | 70 | 178 | 255.0 | 5.0 | 0.01 | 0.05 | 0.00 | 95 | 1010.7 |
| 20260503000235 | 70 | 173 | 4.0 | 6.0 | 0.01 | 0.05 | 0.00 | 95 | 1010.8 |
| 20260502235735 | 70 | 184 | 4.0 | 7.0 | 0.01 | 0.05 | 0.05 | 95 | 1011.0 |
| 20260502235235 | 71 | 194 | 3.0 | 8.0 | 0.02 | 0.05 | 0.05 | 95 | 1011.1 |
| 20260502234735 | 71 | 178 | 2.0 | 6.0 | 0.04 | 0.05 | 0.05 | 95 | 1011.0 |
| 20260502234623 | 71 | 193 | 1.0 | 3.0 | 0.04 | 0.05 | 0.05 | 95 | 1010.8 |
| 20260502234235 | 71 | 193 | 1.0 | 3.0 | 0.04 | 0.05 | 0.05 | 95 | 1010.8 |
| 20260502233735 | 71 | 80 | 1.0 | 2.0 | 0.05 | 0.05 | 0.05 | 95 | 1010.3 |
| 20260502233235 | 71 | 200 | 1.0 | 3.0 | 0.05 | 0.05 | 0.05 | 95 | 1010.8 |
| 20260502232735 | 71 | 196 | 1.0 | 2.0 | 0.04 | 0.04 | 0.04 | 95 | 1011.0 |
| 20260502232235 | 71 | 205 | 2.0 | 3.0 | 0.04 | 0.04 | 0.04 | 94 | 1011.2 |
| 20260502231735 | 71 | 193 | 3.0 | 4.0 | 0.04 | 0.04 | 0.04 | 94 | 1011.2 |
| 20260502231513 | 71 | 193 | 4.0 | 7.0 | 0.04 | 0.04 | 0.04 | 94 | 1011.5 |
| 20260502231235 | 71 | 193 | 4.0 | 7.0 | 0.04 | 0.04 | 0.04 | 94 | 1011.5 |
| 20260502230735 | 71 | 178 | 4.0 | 6.0 | 0.04 | 0.04 | 0.04 | 93 | 1011.4 |
| 20260502230449 | 71 | 175 | 3.0 | 6.0 | 0.04 | 0.04 | 0.04 | 93 | 1011.2 |
| 20260502230235 | 71 | 175 | 3.0 | 6.0 | 0.04 | 0.04 | 0.04 | 93 | 1011.2 |
| 20260502225735 | 71 | 178 | 2.0 | 4.0 | 0.04 | 0.04 | 0.04 | 92 | 1011.4 |
| 20260502225235 | 72 | 245 | 3.0 | 4.0 | 0.03 | 0.03 | 0.03 | 91 | 1011.4 |
| 20260502225014 | 72 | 196 | 5.0 | 11.0 | 0.01 | 0.01 | 0.01 | 90 | 1011.9 |
| 20260502224735 | 72 | 196 | 5.0 | 11.0 | 0.01 | 0.01 | 0.01 | 90 | 1011.9 |
| 20260502224715 | 72 | 225 | 5.0 | 10.0 | 0.01 | 0.01 | 0.01 | 89 | 1011.9 |
| 20260502224235 | 72 | 225 | 5.0 | 10.0 | 0.01 | 0.01 | 0.01 | 89 | 1011.9 |
| 20260502223735 | 73 | 218 | 6.0 | 9.0 | 0.00 | 0.00 | 0.00 | 88 | 1011.8 |
| 20260502223410 | 74 | 281 | 9.0 | 12.0 | 0.00 | 0.00 | 0.00 | 87 | 1011.5 |
| 20260502223235 | 74 | 281 | 9.0 | 12.0 | 0.00 | 0.00 | 0.00 | 87 | 1011.5 |
| 20260502222735 | 74 | 292 | 10.0 | 14.0 | 0.00 | 0.00 | 0.00 | 85 | 1011.7 |
| 20260502222235 | 75 | 254 | 11.0 | 18.0 | 0.00 | 0.00 | 0.00 | 82 | 1011.6 |
| 20260502221735 | 76 | 275 | 11.0 | 18.0 | 0.00 | 0.00 | 0.00 | 80 | 1011.3 |
| 20260502221235 | 76 | 294 | 9.0 | 17.0 | 0.00 | 0.00 | 0.00 | 78 | 1011.3 |
| 20260502220735 | 76 | 300 | 8.0 | 15.0 | 0.00 | 0.00 | 0.00 | 77 | 1011.4 |
| 20260502220235 | 76 | 279 | 8.0 | 13.0 | 0.00 | 0.00 | 0.00 | 76 | 1011.2 |
| 20260502215735 | 76 | 266 | 9.0 | 13.0 | 0.00 | 0.00 | 0.00 | 75 | 1011.2 |
| 20260502215640 | 76 | 287 | 9.0 | 14.0 | 0.00 | 0.00 | 0.00 | 75 | 1011.0 |
| 20260502215235 | 76 | 287 | 9.0 | 14.0 | 0.00 | 0.00 | 0.00 | 75 | 1011.0 |
| 20260502214735 | 76 | 289 | 9.0 | 14.0 | 0.00 | 0.00 | 0.00 | 74 | 1011.0 |
| 20260502214235 | 77 | 286 | 9.0 | 14.0 | 0.00 | 0.00 | 0.00 | 73 | 1011.0 |
| 20260502213735 | 77 | 296 | 8.0 | 12.0 | 0.00 | 0.00 | 0.00 | 73 | 1010.8 |
| 20260502213235 | 77 | 306 | 11.0 | 13.0 | 0.00 | 0.00 | 0.00 | 72 | 1010.8 |
| 20260502212735 | 77 | 317 | 13.0 | 16.0 | 0.00 | 0.00 | 0.00 | 71 | 1010.8 |
| 20260502212235 | 78 | 302 | 13.0 | 20.0 | 0.00 | 0.00 | 0.00 | 70 | 1010.8 |
| 20260502211735 | 78 | 295 | 11.0 | 22.0 | 0.00 | 0.00 | 0.00 | 69 | 1010.8 |
| 20260502211235 | 79 | 313 | 11.0 | 16.0 | 0.00 | 0.00 | 0.00 | 68 | 1010.8 |
| 20260502210735 | 80 | 334 | 12.0 | 21.0 | 0.00 | 0.00 | 0.00 | 66 | 1010.5 |
| 20260502210235 | 82 | 307 | 10.0 | 19.0 | 0.00 | 0.00 | 0.00 | 66 | 1010.6 |
| 20260502205735 | 83 | 317 | 8.0 | 20.0 | 0.00 | 0.00 | 0.00 | 68 | 1010.5 |
| 20260502205235 | 83 | 336 | 7.0 | 12.0 | 0.00 | 0.00 | 0.00 | 69 | 1010.4 |
| 20260502204735 | 83 | 261 | 7.0 | 11.0 | 0.00 | 0.00 | 0.00 | 69 | 1010.4 |
| 20260502204235 | 83 | 293 | 7.0 | 11.0 | 0.00 | 0.00 | 0.00 | 68 | 1010.3 |
| 20260502203735 | 84 | 291 | 7.0 | 12.0 | 0.00 | 0.00 | 0.00 | 68 | 1010.4 |
| 20260502203235 | 84 | 280 | 8.0 | 14.0 | 0.00 | 0.00 | 0.00 | 67 | 1010.3 |
| 20260502202735 | 84 | 290 | 7.0 | 12.0 | 0.00 | 0.00 | 0.00 | 66 | 1010.5 |
| 20260502202235 | 84 | 297 | 8.0 | 15.0 | 0.00 | 0.00 | 0.00 | 66 | 1010.4 |
| 20260502201735 | 85 | 294 | 8.0 | 14.0 | 0.00 | 0.00 | 0.00 | 65 | 1010.4 |
| 20260502201235 | 85 | 286 | 8.0 | 15.0 | 0.00 | 0.00 | 0.00 | 65 | 1010.3 |
| 20260502200735 | 85 | 209 | 9.0 | 15.0 | 0.00 | 0.00 | 0.00 | 64 | 1010.1 |
| 20260502200235 | 85 | 236 | 9.0 | 17.0 | 0.00 | 0.00 | 0.00 | 63 | 1010.2 |
| 20260502195735 | 85 | 273 | 7.0 | 15.0 | 0.00 | 0.00 | 0.00 | 63 | 1010.2 |
| 20260502195235 | 85 | 227 | 7.0 | 14.0 | 0.00 | 0.00 | 0.00 | 65 | 1010.1 |
| 20260502194735 | 85 | 279 | 7.0 | 15.0 | 0.00 | 0.00 | 0.00 | 63 | 1010.3 |
| 20260502194235 | 86 | 224 | 9.0 | 14.0 | 0.00 | 0.00 | 0.00 | 64 | 1010.3 |
| 20260502193736 | 86 | 279 | 9.0 | 18.0 | 0.00 | 0.00 | 0.00 | 63 | 1010.3 |
| 20260502193235 | 86 | 292 | 8.0 | 15.0 | 0.00 | 0.00 | 0.00 | 64 | 1010.3 |
| 20260502192736 | 86 | 273 | 8.0 | 13.0 | 0.00 | 0.00 | 0.00 | 63 | 1010.4 |
| 20260502192235 | 86 | 265 | 8.0 | 18.0 | 0.00 | 0.00 | 0.00 | 62 | 1010.4 |
| 20260502191736 | 87 | 266 | 8.0 | 14.0 | 0.00 | 0.00 | 0.00 | 62 | 1010.5 |
| 20260502191236 | 87 | 249 | 8.0 | 17.0 | 0.00 | 0.00 | 0.00 | 62 | 1010.5 |
| 20260502190735 | 88 | 208 | 9.0 | 12.0 | 0.00 | 0.00 | 0.00 | 61 | 1010.5 |
| 20260502190236 | 88 | 268 | 9.0 | 18.0 | 0.00 | 0.00 | 0.00 | 61 | 1010.6 |
| 20260502185735 | 88 | 267 | 9.0 | 15.0 | 0.00 | 0.00 | 0.00 | 61 | 1010.6 |
| 20260502185236 | 88 | 254 | 10.0 | 23.0 | 0.00 | 0.00 | 0.00 | 61 | 1010.6 |
| 20260502184736 | 88 | 290 | 10.0 | 19.0 | 0.00 | 0.00 | 0.00 | 59 | 1010.6 |
| 20260502184236 | 88 | 247 | 10.0 | 20.0 | 0.00 | 0.00 | 0.00 | 58 | 1010.6 |
| 20260502183736 | 88 | 248 | 9.0 | 15.0 | 0.00 | 0.00 | 0.00 | 58 | 1010.6 |
| 20260502183236 | 88 | 189 | 11.0 | 19.0 | 0.00 | 0.00 | 0.00 | 59 | 1010.7 |
| 20260502182736 | 88 | 273 | 11.0 | 19.0 | 0.00 | 0.00 | 0.00 | 58 | 1010.5 |
| 20260502182236 | 88 | 261 | 10.0 | 19.0 | 0.00 | 0.00 | 0.00 | 58 | 1010.5 |
| 20260502181736 | 89 | 221 | 9.0 | 16.0 | 0.00 | 0.00 | 0.00 | 56 | 1010.5 |
| 20260502181236 | 89 | 259 | 8.0 | 18.0 | 0.00 | 0.00 | 0.00 | 56 | 1010.5 |
| 20260502180736 | 89 | 194 | 9.0 | 16.0 | 0.00 | 0.00 | 0.00 | 58 | 1010.4 |
| 20260502180236 | 88 | 190 | 10.0 | 17.0 | 0.00 | 0.00 | 0.00 | 59 | 1010.4 |
| 20260502170236 | 88 | 198 | 8.0 | 13.0 | 0.00 | 0.00 | 0.00 | 61 | 1011.0 |
| 20260502164236 | 89 | 173 | 9.0 | 22.0 | 0.00 | 0.00 | 0.00 | 58 | 1010.9 |
| 20260502163736 | 89 | 229 | 9.0 | 17.0 | 0.00 | 0.00 | 0.00 | 58 | 1010.8 |
| 20260502163236 | 89 | 193 | 9.0 | 24.0 | 0.00 | 0.00 | 0.00 | 59 | 1011.1 |
| 20260502162736 | 88 | 171 | 9.0 | 16.0 | 0.00 | 0.00 | 0.00 | 61 | 1010.9 |
| 20260502162236 | 88 | 195 | 8.0 | 16.0 | 0.00 | 0.00 | 0.00 | 62 | 1011.1 |
| 20260502161736 | 88 | 178 | 8.0 | 17.0 | 0.00 | 0.00 | 0.00 | 63 | 1011.0 |
| 20260502161236 | 88 | 171 | 7.0 | 18.0 | 0.00 | 0.00 | 0.00 | 63 | 1011.1 |
| 20260502160736 | 87 | 171 | 7.0 | 20.0 | 0.00 | 0.00 | 0.00 | 65 | 1011.1 |
| 20260502160236 | 86 | 272 | 7.0 | 12.0 | 0.00 | 0.00 | 0.00 | 67 | 1011.3 |
| 20260502152236 | 84 | 234 | 8.0 | 16.0 | 0.00 | 0.00 | 0.00 | 70 | 1011.5 |
| 20260502151736 | 84 | 213 | 9.0 | 14.0 | 0.00 | 0.00 | 0.00 | 70 | 1011.5 |
| 20260502151236 | 84 | 182 | 9.0 | 17.0 | 0.00 | 0.00 | 0.00 | 69 | 1011.6 |
| 20260502150736 | 84 | 173 | 8.0 | 17.0 | 0.00 | 0.00 | 0.00 | 69 | 1011.6 |
| 20260502150236 | 84 | 195 | 8.0 | 17.0 | 0.00 | 0.00 | 0.00 | 71 | 1011.5 |
| 20260502130736 | 75 | 194 | 5.0 | 9.0 | 0.00 | 0.00 | 0.00 | 87 | 1010.9 |
| 20260502130236 | 74 | 182 | 5.0 | 12.0 | 0.00 | 0.00 | 0.00 | 88 | 1010.9 |
| 20260502123736 | 71 | 182 | 4.0 | 9.0 | 0.00 | 0.00 | 0.00 | 94 | 1010.7 |
| 20260502123236 | 70 | 173 | 4.0 | 8.0 | 0.00 | 0.00 | 0.00 | 95 | 1010.6 |
| 20260502122736 | 70 | 189 | 3.0 | 6.0 | 0.00 | 0.00 | 0.00 | 95 | 1010.6 |
| 20260502122236 | 69 | 178 | 3.0 | 7.0 | 0.00 | 0.00 | 0.00 | 96 | 1010.9 |
| 20260502121736 | 69 | 190 | 3.0 | 6.0 | 0.00 | 0.00 | 0.00 | 96 | 1010.8 |
| 20260502121236 | 69 | 186 | 3.0 | 6.0 | 0.00 | 0.00 | 0.00 | 97 | 1010.6 |
| 20260502120736 | 68 | 186 | 3.0 | 6.0 | 0.00 | 0.00 | 0.00 | 96 | 1010.8 |
| 20260502120236 | 68 | 183 | 3.0 | 8.0 | 0.00 | 0.00 | 0.00 | 96 | 1010.8 |
| 20260502115736 | 68 | 171 | 3.0 | 7.0 | 0.00 | 0.00 | 0.00 | 97 | 1010.8 |
| 20260502115236 | 68 | 178 | 3.0 | 6.0 | 0.00 | 0.00 | 0.00 | 96 | 1010.8 |
| 20260502114736 | 68 | 205 | 4.0 | 6.0 | 0.00 | 0.00 | 0.00 | 96 | 1010.6 |
| 20260502114236 | 68 | 182 | 4.0 | 9.0 | 0.00 | 0.00 | 0.00 | 96 | 1010.6 |
| 20260502113736 | 68 | 187 | 3.0 | 7.0 | 0.00 | 0.00 | 0.00 | 96 | 1010.5 |
| 20260502113236 | 68 | 221 | 3.0 | 6.0 | 0.00 | 0.00 | 0.00 | 96 | 1010.7 |
| 20260502112736 | 68 | 205 | 4.0 | 10.0 | 0.00 | 0.00 | 0.00 | 96 | 1010.6 |
| 20260502112236 | 67 | 183 | 4.0 | 7.0 | 0.00 | 0.00 | 0.00 | 96 | 1010.4 |
| 20260502111736 | 67 | 184 | 3.0 | 6.0 | 0.00 | 0.00 | 0.00 | 96 | 1010.5 |
| 20260502111236 | 67 | 187 | 3.0 | 6.0 | 0.00 | 0.00 | 0.00 | 96 | 1010.6 |
| 20260502110736 | 67 | 178 | 3.0 | 7.0 | 0.00 | 0.00 | 0.00 | 96 | 1010.4 |
| 20260502110236 | 68 | 190 | 3.0 | 8.0 | 0.00 | 0.00 | 0.00 | 96 | 1010.6 |
| 20260502105736 | 68 | 194 | 4.0 | 6.0 | 0.00 | 0.00 | 0.00 | 96 | 1010.4 |
| 20260502105236 | 68 | 191 | 4.0 | 8.0 | 0.00 | 0.00 | 0.00 | 96 | 1010.1 |
| 20260502104736 | 68 | 185 | 3.0 | 5.0 | 0.00 | 0.00 | 0.00 | 96 | 1010.2 |
| 20260502104236 | 68 | 175 | 3.0 | 6.0 | 0.00 | 0.00 | 0.00 | 96 | 1010.3 |
| 20260502103736 | 68 | 178 | 3.0 | 7.0 | 0.00 | 0.00 | 0.00 | 96 | 1010.1 |
| 20260502103236 | 68 | 221 | 3.0 | 6.0 | 0.00 | 0.00 | 0.00 | 96 | 1010.4 |
| 20260502102736 | 68 | 173 | 3.0 | 6.0 | 0.00 | 0.00 | 0.00 | 96 | 1010.4 |
| 20260502102236 | 68 | 188 | 2.0 | 4.0 | 0.00 | 0.00 | 0.00 | 96 | 1010.4 |
| 20260502101736 | 68 | 178 | 2.0 | 4.0 | 0.00 | 0.00 | 0.00 | 95 | 1010.6 |
| 20260502101236 | 68 | 178 | 2.0 | 5.0 | 0.00 | 0.00 | 0.00 | 95 | 1010.6 |
| 20260502100736 | 68 | 195 | 2.0 | 4.0 | 0.00 | 0.00 | 0.00 | 95 | 1010.5 |
| 20260502100236 | 67 | 188 | 1.0 | 5.0 | 0.00 | 0.00 | 0.00 | 95 | 1010.6 |
| 20260502091237 | 68 | 209 | 1.0 | 2.0 | 0.00 | 0.00 | 0.00 | 94 | 1010.7 |
| 20260502090737 | 68 | 238 | 1.0 | 2.0 | 0.00 | 0.00 | 0.00 | 94 | 1010.6 |
| 20260502090237 | 68 | 205 | 1.0 | 2.0 | 0.00 | 0.00 | 0.00 | 94 | 1010.6 |
| 20260502071237 | 70 | 217 | 2.0 | 4.0 | 0.00 | 0.00 | 0.00 | 93 | 1011.1 |
| 20260502070737 | 69 | 208 | 2.0 | 4.0 | 0.00 | 0.00 | 0.00 | 92 | 1011.0 |
| 20260502070237 | 69 | 196 | 3.0 | 4.0 | 0.00 | 0.00 | 0.00 | 92 | 1011.2 |
| 20260502065737 | 70 | 269 | 2.0 | 4.0 | 0.00 | 0.00 | 0.00 | 92 | 1011.1 |
| 20260502065237 | 70 | 196 | 2.0 | 5.0 | 0.00 | 0.00 | 0.00 | 91 | 1011.1 |
| 20260502064737 | 70 | 191 | 2.0 | 5.0 | 0.00 | 0.00 | 0.00 | 91 | 1011.2 |
| 20260502064237 | 70 | 178 | 2.0 | 5.0 | 0.00 | 0.00 | 0.00 | 91 | 1011.2 |
| 20260502063737 | 70 | 178 | 2.0 | 4.0 | 0.00 | 0.00 | 0.00 | 90 | 1011.2 |